Weather Roundup
Issued by NWS Corpus Christi, TX

Home | Current Version | Previous Version | Text Only | Print | Product List | Glossary On
Versions: 1 2 3 4 5 6 7 8 9 10 11 12 13 14 15 16 17 18 19 20 21 22 23 24 25 26 27 28 29 30 31 32 33 34 35 36 37 38 39 40 41 42 43 44 45 46 47 48 49 50
000
ASUS44 KCRP 180610
HRRCRP

SOUTH TEXAS REGIONAL WEATHER ROUNDUP
NATIONAL WEATHER SERVICE CORPUS CHRISTI TX
100 AM CDT THU SEP 18 2014


TXZ229>244-180700-
...CORPUS CHRISTI AREA OBSERVATIONS...

CITY           SKY/WX    TMP DP  RH WIND       PRES   REMARKS
CORPUS CHRISTI PTCLDY    79  76  90 S7        29.87F
NAS CORPUS CHR PTCLDY    82  78  88 S10       29.87F HX  91
ROCKPORT       PTCLDY    83  77  82 S8        29.87F HX  92
KINGSVILLE NAS PTCLDY    80  78  94 S9        29.87F
ALICE          PTCLDY    79  77  94 S8        29.87F
FALFURRIAS     PTCLDY   N/A N/A N/A S7        29.87F
$$

...VICTORIA AREA OBSERVATIONS...

CITY           SKY/WX    TMP DP  RH WIND       PRES   REMARKS
VICTORIA       PTCLDY    80  78  94 SE3       29.89S
BEEVILLE       FAIR      79  78  96 S8        29.88S
PLEASANTON     CLEAR     80  73  81 SE7       29.88F
SAN ANTONIO    CLOUDY    80  75  84 SE8       29.90F
$$

...LAREDO AREA OBSERVATIONS...

CITY           SKY/WX    TMP DP  RH WIND       PRES   REMARKS
LAREDO         PTCLDY    81  73  76 SE12      29.89F
COTULLA        PTCLDY    81  72  74 SE7       29.87S
DEL RIO        CLOUDY    81  73  76 SE5       29.86F
MCALLEN        CLEAR     78  77  96 SE6       29.89S
HEBBRONVILLE     N/A     78  73  86 SE7       29.90F
$$

...OTHER TEXAS OBSERVATIONS...

CITY           SKY/WX    TMP DP  RH WIND       PRES   REMARKS
BROWNSVILLE    CLEAR     78  76  93 SE5       29.90R
HOUSTON        CLOUDY    76  75  97 CALM      29.91S
COL. STATION   LGT RAIN  76  74  93 CALM      29.91F
AUSTIN         CLOUDY    77  74  90 SE5       29.89F THUNDER
WACO           CLOUDY    73  71  93 SW9       29.90F
FORT WORTH     CLOUDY    79  72  79 S12       29.90F
WICHITA FALLS  CLOUDY    73  70  90 MISG      29.90S
LUBBOCK        MOCLDY    67  64  90 S7        30.00F
EL PASO        LGT RAIN  66  64  93 NE15      30.01F
$$

...MARINE OBSERVATIONS...

STATION/POSITION TIME  SKY/WX   TEMP    WIND        PRES    VSBY  WAVE   SWELL
                                AIR SEA DIR/SP/G                  HT/PER HT/PER
                 (UTC)          (F)     (DEG/KT/KT) (MB)    (MI)  (FT/S) (FT/S)
PORT ARANSAS     0600            84 85  160/ 19/ 20 1011.9F
BUOY 90 E PORT A 0600            83 85  160/ 10/ 12 1012.4F         2/ 6   2/ 6
BUOY 45 SE BAFFI 0600            84 84  160/ 14/ 16 1011.3F         3/ 6
BUOY 200 E PT IS 0600            84 86  150/  8/ 10 1012.3F         2/ 5   2/ 5
BUOY 15 E GALVES 0600            81 84  150/  8/ 10 1012.0F         2/ 5   2/ 5
$$


USA.gov is the U.S. government's official web portal to all federal, state and local government web resources and services.